350  
SXUS52 KTAE 181619  
OSOTAE  
OSOTAE  
NORTH FLORIDA/SOUTH ALABAMA/SOUTHWEST GEORGIA WEATHER ROUNDUP  
NATIONAL WEATHER SERVICE TALLAHASSEE FLORIDA  
1200 PM EDT FRI AUG 18 2017  
 
NOTE: "FAIR" INDICATES FEW OR NO CLOUDS BELOW 12,000 FEET WITH NO  
SIGNIFICANT WEATHER AND/OR OBSTRUCTIONS TO VISIBILITY.  
 
!FLZ017-115-028-034-025-181700   
..NORTH FLORIDA
 
 
 
CITY SKY/WX TMP DP RH WIND PRES REMARKS  
TALLAHASSEE MOSUNNY 92 75 57 N5 30.01F HX 103  
APALACHICOLA SUNNY 92 80 68 N7 30.02F HX 110  
PERRY SUNNY 92 77 61 NW7 30.02F HX 104  
CROSS CITY TSTM 81 79 92 S5 30.06F HX 91  
JACKSONVILLE PTSUNNY 89 78 70 NE10 30.00F THUNDER HX 103  

 
 
!FLZ112-006-005-002-011-181700   
..FLORIDA PANHANDLE
 
 
 
CITY SKY/WX TMP DP RH WIND PRES REMARKS  
MARIANNA MOSUNNY 92 74 55 NW9 30.01F HX 101  
BONIFAY NOT AVBL  
PANAMA CITY NW FAIR 91 75 59 NW8 30.01S HX 101  
TYNDALL AFB MOSUNNY 90 76 62 NW7 30.02S HX 101  
TYND DRONE APT FAIR 91 78 65 NE7 30.02S HX 104  
DE FUNIAK SPR FAIR 88 74 63 N7 30.04S HX 97  
EGLIN AFB MOSUNNY 92 74 56 NW8 30.01F HX 101  
DESTIN SUNNY 94 74 52 N10 30.02S HX 104  
HURLBURT SUNNY 91 70 50 N13 30.01S HX 96  
CRESTVIEW MOSUNNY 91 74 57 NW13 30.04F HX 100  
PENSACOLA MOSUNNY 92 75 57 NW9 30.03S HX 103  

 
 
!ALZ063-066-181700   
..SOUTH ALABAMA
 
 
 
CITY SKY/WX TMP DP RH WIND PRES REMARKS  
DOTHAN MOSUNNY 89 75 63 W13 30.06F HX 99  
OZARK CAIRNS MOSUNNY 89 75 64 NW8 30.02F HX 99  
FT RUCKER HELI MOSUNNY 88 75 66 NW10 30.02F HX 97  
RUCKER HELI 3 FAIR 88 75 66 NW12 30.03S HX 97  
RUCKER HELI 2 FAIR 88 75 66 NW10 30.02S HX 97  
FLORALA APT NOT AVBL  
ANDALUSIA MOSUNNY 92 75 57 NW14 30.03S HX 103  
TROY MOSUNNY 88 75 65 VRB7 30.04S HX 97  
EUFALA FAIR 89 76 65 VRB6 30.01S HX 100  
MOBILE PTSUNNY 90 76 63 NW9 30.05F HX 101  

 
 
!GAZ120>161-181700   
..SOUTHWEST AND SOUTH CENTRAL GEORGIA
 
 
 
CITY SKY/WX TMP DP RH WIND PRES REMARKS  
THOMASVILLE FAIR 91 72 52 N5 30.03F HX 98  
BAINBRIDGE SUNNY 91 81 70 NW5 30.02S HX 110  
MOODY AFB SUNNY 91 72 53 N7 30.00F HX 97  
VALDOSTA SUNNY 92 72 51 VRB5 30.01F HX 99  
MOULTRIE SUNNY 90 72 55 W7 30.03F HX 96  
BLAKELY SUNNY 91 73 55 NW8 30.02S HX 100  
ALBANY SUNNY 92 75 57 W12 30.02F HX 103  
TIFTON PTSUNNY 89 73 59 NW6 30.02S HX 98  
FITZGERALD FAIR 91 76 60 W5 30.04F HX 103  
CORDELE FAIR 95 73 48 W7 30.02F HX 104  
AMERICUS FAIR 90 68 48 W10 30.03S HX 93  
HOMERVILLE FAIR 91 72 52 N5 30.02F HX 98  

 
 
!GMZ750-755-770-775-181700   
..COASTAL AND BUOY OBS
 
 
 
STATION/POSITION TIME TEMP WIND PRES VSBY WAVE  
AIR SEA DIR/SP/G HT/PER  
(UTC) (F) (DEG/KT/KT) (MB) (MI) (FT/S)  
KEATON BEACH 1600 89 310/ 5/ 7 1016.3F  
CEDAR KEY 1600 82 230/ 5/ 6 1017.7F  
C TOWER 1600 84 1017.7R  
APALACHICOLA BUO 1550 79 86 360/ 17/ 21 1017.1F 2/ 3  
PANAMA CITY BUOY 1550 85 87 330/ 6/ 8 1016.9F 2/ 4  
MOBILE BUOY 1600 85 87 320/ 10/ 14 1017.5  
ORANGE BCH AL BU 1550 84 86 310/ 8/ 10 1016.7F 1/ 4  

 
 
 
CLICK HERE TO GO TO PREVIOUS BULLETINS.

The Nexlab FL Page
The Nexlab GA Page
The Nexlab AL Page Main Text Page